FW8782 Weather Reports


Display with metric or nautical units.
time (UTC)temp
F
wind
direction
speed
MPH
gust
MPH
rain 1hr
in
rain 24hr
in
rain mn
in
humidity
%
barometer
mb
20260509201013 67 294 0.0 2.0 0.00 0.00 0.00 65 1019.7
20260509200514 67 246 1.0 2.0 0.00 0.00 0.00 66 1019.8
20260509200032 67 0 0.0 3.0 0.00 0.00 0.00 65 1019.9
20260509195516 67 336 0.0 3.0 0.00 0.00 0.00 65 1019.9
20260509195012 67 348 0.0 3.0 0.00 0.00 0.00 65 1020.0
20260509194534 67 316 0.0 4.0 0.00 0.00 0.00 65 1019.9
20260509194013 67 298 2.0 4.0 0.00 0.00 0.00 64 1019.9
20260509193514 66 229 1.0 4.0 0.00 0.00 0.00 64 1020.0
20260509193037 66 0 0.0 3.0 0.00 0.00 0.00 66 1020.1
20260509192514 66 260 0.0 5.0 0.00 0.00 0.00 66 1020.3
20260509192018 66 257 1.0 5.0 0.00 0.00 0.00 64 1020.3
20260509191532 66 262 2.0 5.0 0.00 0.00 0.00 65 1020.5
20260509191013 66 232 1.0 3.0 0.00 0.00 0.00 66 1020.5
20260509190514 65 348 1.0 3.0 0.00 0.00 0.00 66 1020.5
20260509190035 65 327 0.0 2.0 0.00 0.00 0.00 67 1020.6
20260509185515 65 0 0.0 2.0 0.00 0.00 0.00 66 1020.5
20260509185014 65 325 0.0 3.0 0.00 0.00 0.00 67 1020.5
20260509184540 65 329 0.0 3.0 0.00 0.00 0.00 67 1020.6
20260509184015 64 284 1.0 3.0 0.00 0.00 0.00 68 1020.6
20260509183514 64 0 1.0 3.0 0.00 0.00 0.00 67 1020.7
20260509183033 64 244 1.0 3.0 0.00 0.00 0.00 69 1020.7
20260509182514 63 155 1.0 3.0 0.00 0.00 0.00 68 1020.8
20260509182011 63 257 1.0 4.0 0.00 0.00 0.00 69 1020.7
20260509181533 63 0 1.0 4.0 0.00 0.00 0.00 69 1020.8
20260509181018 63 276 1.0 4.0 0.00 0.00 0.00 69 1020.8
20260509180515 63 298 1.0 2.0 0.00 0.00 0.00 70 1020.8
20260509180033 62 229 0.0 4.0 0.00 0.00 0.00 72 1020.8
20260509175514 61 273 1.0 4.0 0.00 0.00 0.00 71 1020.7
20260509175017 61 312 0.0 3.0 0.00 0.00 0.00 74 1020.8
20260509174533 60 0 1.0 3.0 0.00 0.00 0.00 73 1020.9
20260509174014 60 0 0.0 3.0 0.00 0.00 0.00 75 1020.9
20260509173512 59 229 1.0 3.0 0.00 0.00 0.00 75 1021.0
20260509173039 59 207 1.0 3.0 0.00 0.00 0.00 75 1020.9
20260509172516 59 5 1.0 3.0 0.00 0.00 0.00 76 1021.0
20260509172014 59 267 1.0 3.0 0.00 0.00 0.00 76 1021.1
20260509171541 59 0 0.0 4.0 0.00 0.00 0.00 76 1021.2
20260509171014 58 191 1.0 4.0 0.00 0.00 0.00 76 1021.3
20260509170516 58 249 1.0 4.0 0.00 0.00 0.00 77 1021.1
20260509170034 58 0 0.0 2.0 0.00 0.00 0.00 77 1021.1
20260509165514 58 248 0.0 4.0 0.00 0.00 0.00 78 1021.4
20260509165015 57 259 1.0 4.0 0.00 0.00 0.00 78 1021.2
20260509164535 57 306 1.0 3.0 0.00 0.00 0.00 78 1021.1
20260509164014 57 0 0.0 3.0 0.00 0.00 0.00 80 1021.1
20260509163516 57 317 0.0 2.0 0.00 0.00 0.00 80 1021.2
20260509163031 56 0 0.0 2.0 0.00 0.00 0.00 81 1021.4
20260509162514 56 0 0.0 2.0 0.00 0.00 0.00 81 1021.5
20260509162016 55 282 0.0 2.0 0.00 0.00 0.00 81 1021.6
20260509161535 55 0 0.0 2.0 0.00 0.00 0.00 82 1021.5
20260509161016 55 0 0.0 2.0 0.00 0.00 0.00 82 1021.6
20260509160514 54 273 0.0 2.0 0.00 0.00 0.00 82 1021.6
20260509160032 54 279 0.0 3.0 0.00 0.00 0.00 82 1021.7
20260509155511 54 319 0.0 3.0 0.00 0.00 0.00 83 1021.7
20260509155015 53 319 0.0 2.0 0.00 0.00 0.00 84 1021.8
20260509154536 53 100 0.0 2.0 0.00 0.00 0.00 86 1021.9
20260509154015 52 0 0.0 2.0 0.00 0.00 0.00 86 1021.7
20260509153514 52 0 0.0 2.0 0.00 0.00 0.00 87 1021.9
20260509153037 52 0 0.0 2.0 0.00 0.00 0.00 88 1021.8
20260509152514 52 0 0.0 0.0 0.00 0.00 0.00 88 1022.0
20260509152014 51 0 0.0 0.0 0.00 0.00 0.00 89 1022.1
20260509151532 51 0 0.0 2.0 0.00 0.00 0.00 89 1022.1
20260509151012 51 0 0.0 2.0 0.00 0.00 0.00 90 1022.2
20260509150515 51 300 0.0 3.0 0.00 0.00 0.00 90 1022.1
20260509150030 50 0 0.0 3.0 0.00 0.00 0.00 90 1022.1
20260509145514 50 253 0.0 3.0 0.00 0.00 0.00 90 1022.2
20260509145014 50 227 0.0 2.0 0.00 0.00 0.00 90 1022.1
20260509144553 49 0 0.0 0.0 0.00 0.00 0.00 90 1022.1
20260509144014 49 0 0.0 0.0 0.00 0.00 0.00 90 1022.2
20260509143517 48 0 0.0 0.0 0.00 0.00 0.00 90 1022.2
20260509143039 47 0 0.0 0.0 0.00 0.00 0.00 90 1022.1
20260509142515 47 0 0.0 0.0 0.00 0.00 0.00 89 1022.0
20260509142012 46 0 0.0 0.0 0.00 0.00 0.00 89 1022.1
20260509141539 46 0 0.0 0.0 0.00 0.00 0.00 89 1022.1
20260509141015 46 0 0.0 0.0 0.00 0.00 0.00 89 1022.1
20260509140513 45 0 0.0 0.0 0.00 0.00 0.00 89 1022.1
20260509140031 45 0 0.0 0.0 0.00 0.00 0.00 88 1022.1
20260509135514 45 0 0.0 0.0 0.00 0.00 0.00 88 1022.2
20260509135014 45 0 0.0 0.0 0.00 0.00 0.00 88 1022.1
20260509134534 45 0 0.0 0.0 0.00 0.00 0.00 88 1022.0
20260509134016 45 0 0.0 0.0 0.00 0.00 0.00 88 1022.0
20260509133511 45 0 0.0 0.0 0.00 0.00 0.00 88 1021.9
20260509133033 45 0 0.0 0.0 0.00 0.00 0.00 87 1022.0
20260509132514 45 0 0.0 0.0 0.00 0.00 0.00 87 1022.0
20260509132015 45 0 0.0 0.0 0.00 0.00 0.00 87 1021.9
20260509131538 45 0 0.0 0.0 0.00 0.00 0.00 87 1022.0
20260509131017 45 0 0.0 0.0 0.00 0.00 0.00 87 1022.0
20260509130514 46 0 0.0 0.0 0.00 0.00 0.00 87 1022.1
20260509130030 46 0 0.0 0.0 0.00 0.00 0.00 87 1022.0
20260509125514 46 0 0.0 0.0 0.00 0.00 0.00 87 1022.0
20260509125014 46 0 0.0 0.0 0.00 0.00 0.00 87 1022.0
20260509124548 46 0 0.0 0.0 0.00 0.00 0.00 87 1022.1
20260509124014 46 0 0.0 0.0 0.00 0.00 0.00 87 1022.0
20260509123513 47 0 0.0 0.0 0.00 0.00 0.00 87 1022.1
20260509123034 47 0 0.0 0.0 0.00 0.00 0.00 87 1022.2
20260509122515 47 0 0.0 0.0 0.00 0.00 0.00 87 1022.2
20260509122014 47 0 0.0 0.0 0.00 0.00 0.00 87 1022.3
20260509121534 47 0 0.0 0.0 0.00 0.00 0.00 87 1022.2
20260509121014 47 0 0.0 0.0 0.00 0.00 0.00 87 1022.3
20260509120514 47 0 0.0 0.0 0.00 0.00 0.00 87 1022.2
20260509120033 48 0 0.0 0.0 0.00 0.00 0.00 87 1022.3
20260509115513 48 0 0.0 0.0 0.00 0.00 0.00 87 1022.2
20260509115016 48 0 0.0 0.0 0.00 0.00 0.00 87 1022.2
20260509114533 48 0 0.0 0.0 0.00 0.00 0.00 87 1022.4
20260509114015 48 0 0.0 0.0 0.00 0.00 0.00 87 1022.3
20260509113515 48 0 0.0 0.0 0.00 0.00 0.00 87 1022.4
20260509113035 48 0 0.0 0.0 0.00 0.00 0.00 87 1022.6
20260509112514 48 0 0.0 0.0 0.00 0.00 0.00 87 1022.5
20260509112013 48 0 0.0 0.0 0.00 0.00 0.00 87 1022.6
20260509111533 48 0 0.0 0.0 0.00 0.00 0.00 87 1022.6
20260509111014 48 0 0.0 0.0 0.00 0.00 0.00 87 1022.7
20260509110513 48 0 0.0 0.0 0.00 0.00 0.00 87 1022.7
20260509110031 48 0 0.0 0.0 0.00 0.00 0.00 87 1022.6
20260509105514 48 0 0.0 0.0 0.00 0.00 0.00 87 1022.7
20260509105015 48 0 0.0 0.0 0.00 0.00 0.00 87 1022.7
20260509104535 48 0 0.0 0.0 0.00 0.00 0.00 87 1022.7
20260509104014 48 0 0.0 0.0 0.00 0.00 0.00 87 1022.7
20260509103514 48 0 0.0 0.0 0.00 0.00 0.00 87 1022.6
20260509103030 48 0 0.0 0.0 0.00 0.00 0.00 87 1022.7
20260509102516 48 0 0.0 0.0 0.00 0.00 0.00 87 1022.5
20260509102018 48 0 0.0 0.0 0.00 0.00 0.00 87 1022.6
20260509101532 48 0 0.0 0.0 0.00 0.00 0.00 87 1022.6
20260509101015 48 0 0.0 0.0 0.00 0.00 0.00 87 1022.6
20260509100514 48 0 0.0 0.0 0.00 0.00 0.00 87 1022.8
20260509100048 48 0 0.0 0.0 0.00 0.00 0.00 87 1022.8
20260509095515 48 0 0.0 0.0 0.00 0.00 0.00 87 1022.8
20260509095012 48 0 0.0 0.0 0.00 0.00 0.00 87 1022.8
20260509094535 48 0 0.0 0.0 0.00 0.00 0.00 87 1022.7
20260509094011 48 0 0.0 0.0 0.00 0.00 0.00 87 1022.6
20260509093514 48 0 0.0 0.0 0.00 0.00 0.00 87 1022.7
20260509093031 48 0 0.0 0.0 0.00 0.00 0.00 87 1022.8
20260509092514 48 0 0.0 0.0 0.00 0.00 0.00 87 1022.8
20260509092013 48 0 0.0 0.0 0.00 0.00 0.00 87 1022.7
20260509091532 48 0 0.0 0.0 0.00 0.00 0.00 87 1022.9
20260509091014 48 0 0.0 0.0 0.00 0.00 0.00 87 1022.8
20260509090514 48 0 0.0 0.0 0.00 0.00 0.00 86 1022.9
20260509090032 48 0 0.0 0.0 0.00 0.00 0.00 86 1022.9
20260509085514 48 0 0.0 0.0 0.00 0.00 0.00 86 1023.0
20260509085020 48 0 0.0 0.0 0.00 0.00 0.00 86 1023.0
20260509084534 48 0 0.0 0.0 0.00 0.00 0.00 86 1023.1
20260509084014 48 0 0.0 0.0 0.00 0.00 0.00 86 1023.1
20260509083514 48 0 0.0 0.0 0.00 0.00 0.00 86 1023.1
20260509083035 48 0 0.0 0.0 0.00 0.00 0.00 86 1023.1
20260509082518 48 0 0.0 0.0 0.00 0.00 0.00 86 1023.1
20260509082012 48 0 0.0 0.0 0.00 0.00 0.00 86 1023.1
20260509081541 48 0 0.0 0.0 0.00 0.00 0.00 85 1023.2
20260509081014 48 0 0.0 0.0 0.00 0.00 0.00 85 1023.2
20260509080514 48 0 0.0 0.0 0.00 0.00 0.00 85 1023.1
20260509080032 48 0 0.0 0.0 0.00 0.00 0.00 85 1023.1
20260509075514 48 0 0.0 0.0 0.00 0.00 0.00 85 1023.1
20260509075016 49 0 0.0 0.0 0.00 0.00 0.00 85 1023.1
20260509074536 49 0 0.0 0.0 0.00 0.00 0.00 85 1023.1
20260509074013 49 0 0.0 0.0 0.00 0.00 0.00 85 1023.1
20260509073514 49 0 0.0 0.0 0.00 0.00 0.00 85 1023.1
20260509073032 49 0 0.0 0.0 0.00 0.00 0.00 84 1023.2
20260509072516 49 0 0.0 0.0 0.00 0.00 0.00 84 1023.2
20260509072013 50 0 0.0 0.0 0.00 0.00 0.00 84 1023.0
20260509071535 50 0 0.0 0.0 0.00 0.00 0.00 84 1023.0
20260509071014 50 0 0.0 0.0 0.00 0.00 0.00 83 1022.9
20260509070513 50 0 0.0 0.0 0.00 0.00 0.00 83 1023.0
20260509070033 50 0 0.0 0.0 0.00 0.00 0.00 83 1023.0
20260509065515 51 0 0.0 0.0 0.00 0.00 0.00 83 1023.0
20260509065012 51 0 0.0 0.0 0.00 0.00 0.00 83 1023.0
20260509064532 51 0 0.0 0.0 0.00 0.00 0.00 82 1022.9
20260509064011 51 0 0.0 0.0 0.00 0.00 0.00 82 1022.8
20260509063514 51 0 0.0 0.0 0.00 0.00 0.00 82 1022.8
20260509063034 51 0 0.0 0.0 0.00 0.00 0.00 82 1022.8
20260509062515 52 0 0.0 0.0 0.00 0.00 0.00 82 1022.8
20260509062017 52 0 0.0 0.0 0.00 0.00 0.00 82 1022.8
20260509061545 52 0 0.0 0.0 0.00 0.00 0.00 82 1022.8
20260509061013 52 0 0.0 0.0 0.00 0.00 0.00 82 1022.8
20260509060512 52 0 0.0 0.0 0.00 0.00 0.00 82 1022.7
20260509060037 52 0 0.0 0.0 0.00 0.00 0.00 82 1022.7
20260509055513 52 0 0.0 0.0 0.00 0.00 0.00 82 1022.6
20260509055019 52 0 0.0 0.0 0.00 0.00 0.00 82 1022.7
20260509054537 52 0 0.0 0.0 0.00 0.00 0.00 82 1022.7
20260509054015 52 0 0.0 0.0 0.00 0.00 0.00 81 1022.7
20260509053511 52 0 0.0 0.0 0.00 0.00 0.00 81 1022.7
20260509053035 52 0 0.0 0.0 0.00 0.00 0.00 80 1022.7
20260509052514 52 0 0.0 0.0 0.00 0.00 0.00 80 1022.7
20260509052016 52 0 0.0 0.0 0.00 0.00 0.00 80 1022.7
20260509051534 53 0 0.0 0.0 0.00 0.00 0.00 79 1022.7
20260509051016 53 0 0.0 0.0 0.00 0.00 0.00 79 1022.7
20260509050515 53 0 0.0 0.0 0.00 0.00 0.00 79 1022.6
20260509050047 53 0 0.0 0.0 0.00 0.00 0.00 78 1022.6
20260509045515 53 0 0.0 0.0 0.00 0.00 0.00 78 1022.6
20260509045014 54 0 0.0 0.0 0.00 0.00 0.00 78 1022.6
20260509044543 54 0 0.0 0.0 0.00 0.00 0.00 78 1022.5
20260509044014 54 0 0.0 0.0 0.00 0.00 0.00 77 1022.5
20260509043515 54 0 0.0 0.0 0.00 0.00 0.00 77 1022.4
20260509043030 54 0 0.0 0.0 0.00 0.00 0.00 76 1022.4
20260509042518 55 0 0.0 0.0 0.00 0.00 0.00 76 1022.4
20260509042014 55 0 0.0 0.0 0.00 0.00 0.00 76 1022.4
20260509041531 55 0 0.0 0.0 0.00 0.00 0.00 76 1022.5
20260509041015 55 0 0.0 0.0 0.00 0.00 0.00 76 1022.5
20260509040515 55 0 0.0 0.0 0.00 0.00 0.00 75 1022.5
20260509040032 55 0 0.0 0.0 0.00 0.00 0.00 75 1022.4
20260509035515 55 0 0.0 2.0 0.00 0.00 0.00 74 1022.3
20260509035015 56 0 0.0 2.0 0.00 0.00 0.00 74 1022.4
20260509034531 56 0 0.0 2.0 0.00 0.00 0.00 74 1022.3
20260509034014 56 0 0.0 2.0 0.00 0.00 0.00 73 1022.3
20260509033514 56 0 0.0 3.0 0.00 0.00 0.00 73 1022.2
20260509033032 56 0 0.0 3.0 0.00 0.00 0.00 73 1022.2
20260509032518 56 267 1.0 3.0 0.00 0.00 0.00 73 1022.2
20260509032014 56 0 0.0 2.0 0.00 0.00 0.00 73 1022.2
20260509031535 57 88 0.0 2.0 0.00 0.00 0.00 73 1022.2
20260509031013 57 281 0.0 2.0 0.00 0.00 0.00 72 1022.1
20260509030513 57 316 0.0 2.0 0.00 0.00 0.00 72 1022.1
20260509030034 57 306 0.0 3.0 0.00 0.00 0.00 71 1022.1
20260509025514 57 0 0.0 3.0 0.00 0.00 0.00 71 1022.1
20260509025015 57 337 0.0 3.0 0.00 0.00 0.00 71 1022.0
20260509024532 57 223 0.0 2.0 0.00 0.00 0.00 71 1022.1
20260509024017 57 0 0.0 4.0 0.00 0.00 0.00 71 1022.0
20260509023518 58 43 0.0 4.0 0.00 0.00 0.00 70 1022.0
20260509023041 58 0 0.0 4.0 0.00 0.00 0.00 70 1022.0
20260509022515 58 202 0.0 4.0 0.00 0.00 0.00 70 1021.9
20260509022015 58 232 1.0 4.0 0.00 0.00 0.00 69 1021.8
20260509021532 59 214 1.0 5.0 0.00 0.00 0.00 69 1021.8
20260509021012 59 24 1.0 6.0 0.00 0.00 0.00 69 1021.8
20260509020520 59 272 2.0 6.0 0.00 0.00 0.00 69 1021.9
20260509020034 59 260 0.0 3.0 0.00 0.00 0.00 68 1021.8
20260509015512 59 237 1.0 3.0 0.00 0.00 0.00 68 1021.8
20260509015016 59 186 0.0 3.0 0.00 0.00 0.00 68 1021.8
20260509014535 59 227 1.0 3.0 0.00 0.00 0.00 68 1021.8
20260509014012 59 184 1.0 4.0 0.00 0.00 0.00 68 1021.9
20260509013517 59 325 1.0 4.0 0.00 0.00 0.00 68 1021.9
20260509013053 59 266 1.0 4.0 0.00 0.00 0.00 68 1021.9
20260509012514 59 360 1.0 3.0 0.00 0.00 0.00 67 1022.0
20260509012017 60 0 1.0 3.0 0.00 0.00 0.00 67 1021.9
20260509011536 60 0 0.0 4.0 0.00 0.00 0.00 67 1022.0
20260509011015 60 244 1.0 7.0 0.00 0.00 0.00 67 1022.0
20260509010513 60 215 1.0 7.0 0.00 0.00 0.00 66 1022.1
20260509010032 61 289 2.0 7.0 0.00 0.00 0.00 66 1022.1
20260509005515 61 160 2.0 7.0 0.00 0.00 0.00 66 1022.1
20260509005016 60 257 0.0 6.0 0.00 0.00 0.00 66 1022.0
20260509004535 61 313 2.0 6.0 0.00 0.00 0.00 66 1022.0
20260509004014 61 224 2.0 6.0 0.00 0.00 0.00 65 1021.9
20260509003518 61 173 1.0 6.0 0.00 0.00 0.00 65 1021.9
20260509003034 61 205 2.0 6.0 0.00 0.00 0.00 65 1021.9
20260509002514 61 0 1.0 6.0 0.00 0.00 0.00 65 1021.9
20260509002014 61 240 1.0 7.0 0.00 0.00 0.00 65 1021.8
20260509001534 61 285 2.0 7.0 0.00 0.00 0.00 65 1021.9
20260509001015 61 271 1.0 6.0 0.00 0.00 0.00 65 1021.9
20260509000511 61 21 2.0 5.0 0.00 0.00 0.00 65 1021.9
20260509000030 61 327 1.0 6.0 0.00 0.00 0.00 64 1021.9
20260508235511 61 250 2.0 6.0 0.00 0.00 0.00 64 1021.8
20260508235014 61 186 1.0 6.0 0.00 0.00 0.00 64 1021.8
20260508234530 61 249 1.0 4.0 0.00 0.00 0.00 64 1021.9
20260508234014 62 225 1.0 5.0 0.00 0.00 0.00 63 1021.9
20260508233515 62 246 1.0 5.0 0.00 0.00 0.00 63 1021.9
20260508233033 62 340 2.0 6.0 0.00 0.00 0.00 63 1021.9
20260508232514 62 190 2.0 8.0 0.00 0.00 0.00 62 1021.9
20260508232013 63 194 3.0 7.0 0.00 0.00 0.00 61 1021.8
20260508231534 63 290 1.0 5.0 0.00 0.00 0.00 63 1021.8
20260508231015 63 205 1.0 8.0 0.00 0.00 0.00 62 1021.8
20260508230514 63 204 1.0 8.0 0.00 0.00 0.00 61 1021.8
20260508230049 63 244 1.0 5.0 0.00 0.00 0.00 62 1021.8
20260508225514 63 175 0.0 3.0 0.00 0.00 0.00 64 1021.8
20260508225014 62 9 1.0 4.0 0.00 0.00 0.00 63 1021.8
20260508224554 62 178 1.0 5.0 0.00 0.00 0.00 64 1021.8
20260508224015 62 309 1.0 5.0 0.00 0.00 0.00 64 1021.8
20260508223518 62 236 0.0 4.0 0.00 0.00 0.00 64 1021.7
20260508223033 61 296 2.0 8.0 0.00 0.00 0.00 63 1021.8
20260508222515 61 194 2.0 8.0 0.00 0.00 0.00 64 1021.9
20260508222016 61 214 2.0 7.0 0.00 0.00 0.00 64 1021.9
20260508221534 61 0 1.0 7.0 0.00 0.00 0.00 64 1021.9
20260508221019 61 239 1.0 7.0 0.00 0.00 0.00 63 1021.9
20260508220516 61 188 1.0 8.0 0.00 0.00 0.00 65 1021.9
20260508220033 60 234 1.0 8.0 0.00 0.00 0.00 64 1021.9
20260508215512 60 291 1.0 11.0 0.00 0.00 0.00 63 1021.9
20260508215014 61 360 3.0 11.0 0.00 0.00 0.00 62 1021.8
20260508214532 61 0 1.0 6.0 0.00 0.00 0.00 65 1021.8
20260508214019 61 192 1.0 5.0 0.00 0.00 0.00 63 1021.8
20260508213514 60 197 2.0 8.0 0.00 0.00 0.00 63 1021.9
20260508213031 60 0 1.0 8.0 0.00 0.00 0.00 65 1021.8
20260508212514 60 210 2.0 8.0 0.00 0.00 0.00 63 1021.9
20260508212013 60 178 2.0 7.0 0.00 0.00 0.00 63 1021.8
20260508211532 60 344 1.0 8.0 0.00 0.00 0.00 64 1021.7
20260508211011 60 225 3.0 8.0 0.00 0.00 0.00 63 1021.8
20260508210515 59 223 1.0 6.0 0.00 0.00 0.00 65 1021.7
20260508210034 59 352 1.0 9.0 0.00 0.00 0.00 64 1021.7
20260508205518 59 232 2.0 9.0 0.00 0.00 0.00 63 1021.6
20260508205013 59 197 3.0 9.0 0.00 0.00 0.00 64 1021.6
20260508204530 59 181 1.0 8.0 0.00 0.00 0.00 64 1021.5
20260508204015 59 304 1.0 8.0 0.00 0.00 0.00 64 1021.5
20260508203512 59 225 1.0 6.0 0.00 0.00 0.00 64 1021.5
20260508203032 59 188 1.0 9.0 0.00 0.00 0.00 64 1021.4
20260508202515 59 126 2.0 9.0 0.00 0.00 0.00 64 1021.4
20260508202015 59 196 1.0 8.0 0.00 0.00 0.00 64 1021.4
20260508201534 59 215 3.0 8.0 0.00 0.00 0.00 64 1021.4